Volver al catálogo

THORAD AGENA D DEB

ActivoLEO
NORAD 42505·DEBRIS·🇺🇸 United States

Lanzado Apr 8, 1970 desde Vandenberg Space Force Base

Loading…

Próximos Pases (próximas 24 horas)

TLE

ActualizadoSource: Space-Track

Época: Sep 14, 2026, 02:57 UTC

1 42505U 70025RK  26257.12320782  .00000361  00000-0  54620-3 0  9997
2 42505 100.1810 215.9770 0044300 333.7674  87.7090 13.59879930635362

Sigue THORAD AGENA D DEB en tiempo real con AllMySat

Download on the App Store